When you browse on this site, cookies collect data to enhance your experience and personalize the content and advertising you see.
Visit our Privacy Policy to learn more. By continuing to use the site, you agree to this use of cookies and data.
  • In Romania
  • List of Countries
  • For 7 days
  • Water Temperature
  • Satellite Maps
  • Weather Map
  • Weather Widgets
  • user-avatar
    Login

    Hourly Weather Klagenfurt

    Today, 20 June, Thursday

    Time Temperature Precipitation Wind Pressure Humidity
    00:00 +14°C° 0 mm 1 mps 688 mmHg 85%
    01:00 +14°C° 0 mm 1 mps 688 mmHg 84%
    02:00 +14°C° 0 mm 1 mps 688 mmHg 86%
    03:00 +14°C° 0 mm 1 mps 688 mmHg 88%
    04:00 +13°C° 0 mm 1 mps 687 mmHg 90%
    05:00 +15°C° 0 mm 1 mps 688 mmHg 86%
    06:00 +18°C° 0 mm 1 mps 688 mmHg 82%
    07:00 +20°C° 0 mm 1 mps 689 mmHg 78%
    08:00 +22°C° 0.2 mm 1 mps 689 mmHg 72%
    09:00 +24°C° 0.2 mm 1 mps 689 mmHg 67%
    10:00 +26°C° 0.2 mm 1 mps 690 mmHg 61%
    11:00 +26°C° 0.4 mm 1 mps 690 mmHg 57%
    12:00 +27°C° 0.4 mm 1 mps 690 mmHg 54%
    13:00 +28°C° 0.4 mm 1 mps 690 mmHg 50%
    14:00 +27°C° 0.2 mm 2 mps 689 mmHg 48%
    15:00 +27°C° 0.2 mm 2 mps 689 mmHg 47%
    16:00 +27°C° 0.2 mm 2 mps 689 mmHg 46%
    17:00 +25°C° 0 mm 2 mps 689 mmHg 56%
    18:00 +23°C° 0 mm 2 mps 689 mmHg 66%
    19:00 +21°C° 0 mm 1 mps 689 mmHg 76%
    20:00 +20°C° 0 mm 1 mps 689 mmHg 80%
    21:00 +18°C° 0 mm 1 mps 689 mmHg 84%
    22:00 +16°C° 0 mm 1 mps 689 mmHg 88%
    23:00 +15°C° 0 mm 1 mps 689 mmHg 88%

    Tomorrow, 21 June, Friday

    Time Temperature Precipitation Wind Pressure Humidity
    00:00 +15°C° 0 mm 1 mps 689 mmHg 89%
    01:00 +14°C° 0 mm 1 mps 689 mmHg 89%
    02:00 +14°C° 0 mm 1 mps 689 mmHg 89%
    03:00 +14°C° 0 mm 1 mps 689 mmHg 90%
    04:00 +13°C° 0 mm 1 mps 689 mmHg 91%
    05:00 +15°C° 0 mm 1 mps 690 mmHg 86%
    06:00 +16°C° 0 mm 0 mps 690 mmHg 81%
    07:00 +18°C° 0 mm 0 mps 691 mmHg 75%
    08:00 +21°C° 0.4 mm 1 mps 691 mmHg 74%
    09:00 +22°C° 0.4 mm 1 mps 692 mmHg 72%
    10:00 +24°C° 0.4 mm 1 mps 692 mmHg 70%
    11:00 +24°C° 0.9 mm 1 mps 692 mmHg 70%
    12:00 +24°C° 0.9 mm 1 mps 692 mmHg 69%
    13:00 +24°C° 0.9 mm 1 mps 692 mmHg 69%
    14:00 +24°C° 0.6 mm 1 mps 691 mmHg 67%
    15:00 +25°C° 0.6 mm 1 mps 691 mmHg 66%
    16:00 +23°C° 0.6 mm 0 mps 691 mmHg 64%
    17:00 +21°C° 0.5 mm 0 mps 691 mmHg 71%
    18:00 +20°C° 0.5 mm 0 mps 691 mmHg 79%
    19:00 +18°C° 0.5 mm 0 mps 690 mmHg 86%
    20:00 +17°C° 0.2 mm 0 mps 690 mmHg 86%
    21:00 +18°C° 0.2 mm 1 mps 690 mmHg 87%
    22:00 +15°C° 0.2 mm 1 mps 690 mmHg 88%
    23:00 +15°C° 0 mm 1 mps 690 mmHg 88%

    Day after tomorrow, 22 June, Saturday

    Time Temperature Precipitation Wind Pressure Humidity
    00:00 +14°C° 0 mm 0 mps 690 mmHg 88%
    01:00 +13°C° 0 mm 0 mps 690 mmHg 88%
    02:00 +13°C° 0 mm 0 mps 690 mmHg 89%
    03:00 +13°C° 0 mm 0 mps 690 mmHg 89%
    04:00 +13°C° 0 mm 0 mps 690 mmHg 90%
    05:00 +14°C° 0.1 mm 0 mps 690 mmHg 90%
    06:00 +15°C° 0.1 mm 0 mps 690 mmHg 90%
    07:00 +17°C° 0.1 mm 0 mps 691 mmHg 90%
    08:00 +18°C° 0.9 mm 0 mps 691 mmHg 86%
    09:00 +21°C° 0.9 mm 1 mps 691 mmHg 82%
    10:00 +22°C° 0.9 mm 1 mps 690 mmHg 78%
    11:00 +22°C° 1.4 mm 1 mps 690 mmHg 78%
    12:00 +23°C° 1.4 mm 1 mps 690 mmHg 77%
    13:00 +23°C° 1.4 mm 1 mps 690 mmHg 76%
    14:00 +23°C° 1.1 mm 1 mps 690 mmHg 75%
    15:00 +23°C° 1.1 mm 1 mps 690 mmHg 73%
    16:00 +23°C° 1.1 mm 1 mps 689 mmHg 72%
    17:00 +22°C° 0.2 mm 1 mps 689 mmHg 76%
    18:00 +21°C° 0.2 mm 1 mps 689 mmHg 81%
    19:00 +18°C° 0.2 mm 0 mps 689 mmHg 85%
    20:00 +17°C° 0 mm 0 mps 689 mmHg 87%
    21:00 +16°C° 0 mm 1 mps 689 mmHg 88%
    22:00 +15°C° 0 mm 1 mps 688 mmHg 90%
    23:00 +15°C° 0.1 mm 1 mps 688 mmHg 90%

    23 June, Sunday

    Time Temperature Precipitation Wind Pressure Humidity
    00:00 +14°C° 0.1 mm 1 mps 688 mmHg 91%
    01:00 +14°C° 0.1 mm 1 mps 688 mmHg 92%
    02:00 +14°C° 0.7 mm 1 mps 688 mmHg 92%
    03:00 +14°C° 0.7 mm 1 mps 689 mmHg 93%
    04:00 +14°C° 0.7 mm 1 mps 689 mmHg 94%
    05:00 +15°C° 0.1 mm 1 mps 689 mmHg 92%
    06:00 +16°C° 0.1 mm 1 mps 690 mmHg 90%
    07:00 +18°C° 0.1 mm 1 mps 690 mmHg 88%
    08:00 +20°C° 0.1 mm 1 mps 691 mmHg 79%
    09:00 +22°C° 0.1 mm 1 mps 691 mmHg 70%
    10:00 +24°C° 0.1 mm 1 mps 692 mmHg 60%
    11:00 +25°C° 0.4 mm 1 mps 692 mmHg 60%
    12:00 +25°C° 0.4 mm 1 mps 692 mmHg 60%
    13:00 +26°C° 0.4 mm 1 mps 692 mmHg 59%
    14:00 +25°C° 0.7 mm 1 mps 692 mmHg 62%
    15:00 +25°C° 0.7 mm 1 mps 692 mmHg 65%
    16:00 +25°C° 0.7 mm 1 mps 692 mmHg 69%
    17:00 +23°C° 0.7 mm 1 mps 692 mmHg 76%
    18:00 +22°C° 0.7 mm 1 mps 692 mmHg 83%
    19:00 +19°C° 0.7 mm 0 mps 692 mmHg 90%
    20:00 +17°C° 0.1 mm 0 mps 692 mmHg 90%
    21:00 +16°C° 0.1 mm 0 mps 693 mmHg 91%
    22:00 +15°C° 0.1 mm 0 mps 693 mmHg 92%
    23:00 +14°C° 0 mm 0 mps 693 mmHg 92%

    24 June, Monday

    Time Temperature Precipitation Wind Pressure Humidity
    00:00 +14°C° 0 mm 0 mps 693 mmHg 93%
    01:00 +14°C° 0 mm 0 mps 693 mmHg 94%
    02:00 +14°C° 0 mm 1 mps 693 mmHg 94%
    03:00 +14°C° 0 mm 1 mps 693 mmHg 94%
    04:00 +14°C° 0 mm 1 mps 693 mmHg 95%
    05:00 +15°C° 0 mm 1 mps 693 mmHg 93%
    06:00 +18°C° 0 mm 1 mps 694 mmHg 91%
    07:00 +17°C° 0 mm 0 mps 694 mmHg 89%
    08:00 +21°C° 0 mm 1 mps 695 mmHg 78%
    09:00 +23°C° 0 mm 1 mps 695 mmHg 68%
    10:00 +25°C° 0 mm 1 mps 696 mmHg 57%
    11:00 +26°C° 0 mm 1 mps 696 mmHg 54%
    12:00 +27°C° 0 mm 1 mps 696 mmHg 50%
    13:00 +28°C° 0 mm 1 mps 696 mmHg 46%
    14:00 +28°C° 0 mm 1 mps 696 mmHg 47%
    15:00 +28°C° 0 mm 1 mps 696 mmHg 48%
    16:00 +28°C° 0 mm 1 mps 695 mmHg 49%
    17:00 +26°C° 0 mm 1 mps 695 mmHg 59%
    18:00 +24°C° 0 mm 1 mps 695 mmHg 69%
    19:00 +23°C° 0 mm 1 mps 695 mmHg 79%
    20:00 +21°C° 0 mm 1 mps 695 mmHg 84%
    21:00 +20°C° 0 mm 1 mps 695 mmHg 89%
    22:00 +16°C° 0 mm 0 mps 696 mmHg 94%
    23:00 +16°C° 0 mm 0 mps 696 mmHg 95%

    25 June, Tuesday

    Time Temperature Precipitation Wind Pressure Humidity
    00:00 +16°C° 0 mm 0 mps 695 mmHg 95%
    01:00 +15°C° 0 mm 0 mps 695 mmHg 96%
    02:00 +15°C° 0 mm 0 mps 695 mmHg 96%
    03:00 +15°C° 0 mm 0 mps 695 mmHg 96%
    04:00 +14°C° 0 mm 0 mps 695 mmHg 97%
    05:00 +16°C° 0 mm 0 mps 695 mmHg 93%
    06:00 +17°C° 0 mm 0 mps 696 mmHg 89%
    07:00 +19°C° 0 mm 0 mps 696 mmHg 85%
    08:00 +23°C° 0 mm 1 mps 697 mmHg 75%
    09:00 +25°C° 0 mm 1 mps 697 mmHg 66%
    10:00 +27°C° 0 mm 1 mps 697 mmHg 57%
    11:00 +28°C° 0 mm 1 mps 697 mmHg 52%
    12:00 +29°C° 0 mm 1 mps 697 mmHg 47%
    13:00 +30°C° 0 mm 2 mps 698 mmHg 42%
    14:00 +30°C° 0 mm 2 mps 697 mmHg 42%
    15:00 +30°C° 0 mm 1 mps 697 mmHg 43%
    16:00 +30°C° 0 mm 1 mps 697 mmHg 44%
    17:00 +28°C° 0 mm 1 mps 697 mmHg 55%
    18:00 +26°C° 0 mm 1 mps 697 mmHg 66%
    19:00 +24°C° 0 mm 1 mps 697 mmHg 77%
    20:00 +23°C° 0 mm 1 mps 697 mmHg 82%
    21:00 +21°C° 0 mm 1 mps 697 mmHg 87%
    22:00 +17°C° 0 mm 0 mps 697 mmHg 92%
    23:00 +17°C° 0 mm 0 mps 697 mmHg 93%
    Show more